Change the Weather History Date:

Tuesday, June 18, 2013

  Actual Average Record
Temperature  
Mean Temperature 60 °F -  
Max Temperature 68 °F 64 °F 75 °F (2014)
Min Temperature 52 °F 51 °F 44 °F (2012)
Degree Days  
Heating Degree Days 5    
Growing Degree Days 10 (Base 50)    
Moisture  
Dew Point 53 °F    
Average Humidity 80    
Maximum Humidity 100    
Minimum Humidity 48    
Precipitation  
Precipitation 0.00 in 0.09 in - ()
Sea Level Pressure  
Sea Level Pressure 30.00 in    
Wind  
Wind Speed 7 mph ()    
Max Wind Speed 17 mph    
Max Gust Speed -    
Visibility 6.2 miles    
Events      
Averages and records for this station are not official NWS values.
T = Trace of Precipitation, MM = Missing Value Source: Averaged Metar Reports

Daily Weather History Graph

Daily Weather History Graph

Search for Another Location

Airport or City:

Trip Planner

Search our weather history database for the weather conditions in past years. The results will help you decide how hot, cold, wet, or windy it might be!

Date:

Astronomy

Jun. 18, 2013 Rise Set
Actual Time 5:14 AM IST 9:56 PM IST
Civil Twilight 4:25 AM IST 10:44 PM IST
Nautical Twilight 3:08 AM IST 12:01 AM IST
Astronomical Twilight 2:07 AM IST 1:02 AM IST
Moon 3:54 PM IST (6/18) 1:51 AM IST (6/18)
Length of Visible Light 18h 18m
Length of Day
16h 41m
Waxing Gibbous, 68% of the Moon is Illuminated
Jun 18
Waxing Gibbous
Jun 23
Full
Jun 30
Last Quarter
Jul 8
New
Jul 16
First Quarter

Hourly Weather History & Observations

Time (IST) Temp. Dew Point Humidity Pressure Visibility Wind Dir Wind Speed Gust Speed Precip Events Conditions
12:00 AM 55.4 °F 53.6 °F 94% 30.01 in 6.2 mi Variable 2.3 mph - N/A   Partly Cloudy
12:30 AM 55.4 °F 53.6 °F 94% 30.01 in 6.2 mi Variable 3.5 mph - N/A   Partly Cloudy
1:00 AM 55 °F 54 °F 93% 30.02 in 25 mi NW 6.7 mph - -   Scattered Clouds
1:00 AM 55.4 °F 53.6 °F 94% 30.01 in 6.2 mi NW 5.8 mph - N/A   Partly Cloudy
1:30 AM 55.4 °F 53.6 °F 94% 30.01 in 6.2 mi NW 6.9 mph - N/A   Partly Cloudy
2:00 AM 55.4 °F 53.6 °F 94% 30.01 in 6.2 mi NW 5.8 mph - N/A   Partly Cloudy
2:30 AM 53.6 °F 53.6 °F 100% 30.01 in 6.2 mi NW 6.9 mph - N/A   Partly Cloudy
3:00 AM 53.6 °F 51.8 °F 94% 30.01 in 6.2 mi NW 5.8 mph - N/A   Scattered Clouds
3:30 AM 53.6 °F 53.6 °F 100% 29.98 in 6.2 mi NNW 5.8 mph - N/A   Mostly Cloudy
4:00 AM 53.6 °F 53.6 °F 100% 29.98 in 6.2 mi NW 5.8 mph - N/A   Mostly Cloudy
4:30 AM 53.6 °F 51.8 °F 94% 29.98 in 6.2 mi NW 8.1 mph - N/A   Mostly Cloudy
5:00 AM 53.6 °F 53.6 °F 100% 29.98 in 6.2 mi NW 8.1 mph - N/A   Mostly Cloudy
5:30 AM 53.6 °F 53.6 °F 100% 29.98 in 6.2 mi NW 8.1 mph - N/A   Mostly Cloudy
6:00 AM 53.6 °F 51.8 °F 94% 29.98 in 6.2 mi NW 5.8 mph - N/A   Mostly Cloudy
6:30 AM 53.6 °F 51.8 °F 94% 29.98 in 6.2 mi NW 4.6 mph - N/A   Mostly Cloudy
7:00 AM 53 °F 53 °F 99% 30.00 in 25 mi NW 6.7 mph - -   Scattered Clouds
7:00 AM 53.6 °F 53.6 °F 100% 29.98 in 6.2 mi NW 5.8 mph - N/A   Mostly Cloudy
7:30 AM 53.6 °F 53.6 °F 100% 29.98 in 6.2 mi NNW 5.8 mph - N/A   Scattered Clouds
8:00 AM 55.4 °F 53.6 °F 94% 29.98 in 6.2 mi NW 6.9 mph - N/A   Scattered Clouds
8:30 AM 55.4 °F 53.6 °F 94% 29.98 in 6.2 mi NW 8.1 mph - N/A   Scattered Clouds
9:00 AM 57.2 °F 55.4 °F 94% 29.98 in 6.2 mi NNW 9.2 mph - N/A   Scattered Clouds
9:30 AM 59.0 °F 55.4 °F 88% 29.98 in 6.2 mi North 10.4 mph - N/A   Scattered Clouds
10:00 AM 59.0 °F 55.4 °F 88% 29.98 in 6.2 mi NNW 13.8 mph - N/A   Scattered Clouds
10:30 AM 60.8 °F 55.4 °F 82% 29.98 in 6.2 mi NNW 12.7 mph - N/A   Partly Cloudy
11:00 AM 60.8 °F 53.6 °F 77% 29.98 in 6.2 mi NNW 12.7 mph - N/A   Partly Cloudy
11:30 AM 62.6 °F 53.6 °F 72% 30.01 in 6.2 mi NNW 11.5 mph - N/A   Scattered Clouds
12:00 PM 62.6 °F 53.6 °F 72% 30.01 in 6.2 mi NNW 10.4 mph - N/A   Scattered Clouds
12:30 PM 62.6 °F 53.6 °F 72% 30.01 in 6.2 mi North 8.1 mph - N/A   Scattered Clouds
1:00 PM 66 °F 54 °F 55% 30.00 in 25 mi NW 6.7 mph - -   Mostly Cloudy
1:00 PM 66.2 °F 53.6 °F 64% 30.01 in 6.2 mi NW 6.9 mph - N/A   Scattered Clouds
1:30 PM 64.4 °F 53.6 °F 68% 30.01 in 6.2 mi NNW 5.8 mph - N/A   Mostly Cloudy
2:00 PM 66.2 °F 53.6 °F 64% 29.98 in 6.2 mi NW 9.2 mph - N/A   Mostly Cloudy
2:30 PM 66.2 °F 53.6 °F 64% 29.98 in 6.2 mi NW 10.4 mph - N/A   Mostly Cloudy
3:00 PM 66.2 °F 53.6 °F 64% 29.98 in 6.2 mi NNW 11.5 mph - N/A   Mostly Cloudy
3:30 PM 66.2 °F 53.6 °F 64% 29.98 in 6.2 mi NW 10.4 mph - N/A   Scattered Clouds
4:00 PM 66.2 °F 53.6 °F 64% 30.01 in 6.2 mi NNW 9.2 mph - N/A   Scattered Clouds
4:30 PM 66.2 °F 51.8 °F 60% 30.01 in 6.2 mi NW 6.9 mph - N/A   Scattered Clouds
5:00 PM 68.0 °F 51.8 °F 56% 30.01 in 6.2 mi NNW 10.4 mph - N/A   Scattered Clouds
5:30 PM 68.0 °F 50.0 °F 52% 29.98 in 6.2 mi NNW 9.2 mph - N/A   Scattered Clouds
6:00 PM 68.0 °F 51.8 °F 56% 29.98 in 6.2 mi NNW 11.5 mph - N/A   Scattered Clouds
6:30 PM 66.2 °F 51.8 °F 60% 29.98 in 6.2 mi NNW 12.7 mph - N/A   Partly Cloudy
7:00 PM 65 °F 50 °F 48% 30.00 in 25 mi NNW 13.4 mph - -   Scattered Clouds
7:00 PM 64.4 °F 50.0 °F 59% 30.01 in 6.2 mi NNW 13.8 mph - N/A   Scattered Clouds
7:30 PM 62.6 °F 51.8 °F 68% 30.01 in 6.2 mi NNW 13.8 mph - N/A   Scattered Clouds
8:00 PM 62.6 °F 51.8 °F 68% 30.01 in 6.2 mi North 13.8 mph - N/A   Scattered Clouds
8:30 PM 60.8 °F 51.8 °F 72% 30.01 in 6.2 mi NNW 17.3 mph - N/A   Scattered Clouds
9:00 PM 59.0 °F 51.8 °F 77% 30.04 in 6.2 mi NNW 13.8 mph - N/A   Scattered Clouds
9:30 PM 57.2 °F 51.8 °F 82% 30.04 in 6.2 mi NNW 13.8 mph - N/A   Scattered Clouds
10:00 PM 57.2 °F 51.8 °F 82% 30.04 in 6.2 mi NNW 16.1 mph - N/A   Scattered Clouds
10:30 PM 55.4 °F 51.8 °F 88% 30.04 in 6.2 mi NNW 13.8 mph - N/A   Scattered Clouds
11:00 PM 53.6 °F 50.0 °F 88% 30.04 in 6.2 mi NNW 16.1 mph - N/A   Mostly Cloudy
11:30 PM 53.6 °F 50.0 °F 88% 30.04 in 6.2 mi NNW 17.3 mph - N/A   Mostly Cloudy